FW6550 Weather Reports


time (UTC)temp
F
wind
direction
speed
knots
gust
knots
rain 1hr
in
rain 24hr
in
rain mn
in
humidity
%
barometer
mb
20260905182520 92 71 0.0 3.5 0.00 0.00 0.00 68 1013.1
20260905182021 93 65 0.0 3.5 0.00 0.00 0.00 66 1013.2
20260905181544 93 170 0.9 3.5 0.00 0.00 0.00 65 1013.5
20260905181020 93 257 0.0 2.6 0.00 0.00 0.00 64 1013.5
20260905180520 94 0 0.0 3.5 0.00 0.00 0.00 62 1013.6
20260905180038 94 0 0.0 3.5 0.00 0.00 0.00 61 1013.7
20260905175522 95 0 0.0 3.5 0.00 0.00 0.00 61 1013.5
20260905175023 95 207 0.9 3.5 0.00 0.00 0.00 57 1013.6
20260905174542 95 299 0.0 2.6 0.00 0.00 0.00 54 1013.6
20260905174018 95 298 0.0 3.5 0.00 0.00 0.00 55 1013.6
20260905173518 95 298 0.0 3.5 0.00 0.00 0.00 58 1013.7
20260905173040 95 0 0.0 4.3 0.00 0.00 0.00 56 1013.7
20260905172518 95 0 0.9 4.3 0.00 0.00 0.00 55 1013.8
20260905172020 95 340 0.0 1.7 0.00 0.00 0.00 57 1013.7
20260905171547 95 0 0.0 2.6 0.00 0.00 0.00 55 1013.8
20260905171017 95 0 0.0 3.5 0.00 0.00 0.00 55 1013.9
20260905170520 95 0 0.0 3.5 0.00 0.00 0.00 55 1013.9
20260905170042 96 0 0.0 2.6 0.00 0.00 0.00 54 1014.0
20260905165518 96 23 0.0 1.7 0.00 0.00 0.00 54 1014.0
20260905165020 97 0 0.0 2.6 0.00 0.00 0.00 55 1014.1
20260905164541 97 0 0.0 7.0 0.00 0.00 0.00 56 1014.0
20260905164020 97 299 0.9 7.0 0.00 0.00 0.00 56 1014.2
20260905163521 97 310 0.9 4.3 0.00 0.00 0.00 56 1014.2
20260905163044 97 42 0.0 2.6 0.00 0.00 0.00 53 1014.3
20260905162521 97 312 0.9 3.5 0.00 0.00 0.00 56 1014.3
20260905162019 96 321 0.9 5.2 0.00 0.00 0.00 56 1014.4
20260905161538 96 305 1.7 5.2 0.00 0.00 0.00 57 1014.4
20260905161020 95 0 0.0 7.0 0.00 0.00 0.00 61 1014.6
20260905160518 95 36 0.0 7.0 0.00 0.00 0.00 56 1014.6
20260905160040 95 33 0.9 6.1 0.00 0.00 0.00 56 1014.7
20260905155523 95 336 0.0 6.1 0.00 0.00 0.00 58 1014.7
20260905155017 95 46 0.9 6.1 0.00 0.00 0.00 57 1014.8
20260905154540 94 299 1.7 6.1 0.00 0.00 0.00 58 1014.8
20260905154019 94 301 0.9 6.1 0.00 0.00 0.00 62 1014.7
20260905153520 93 281 1.7 5.2 0.00 0.00 0.00 64 1014.6
20260905153058 93 342 0.0 4.3 0.00 0.00 0.00 63 1014.7
20260905152519 92 0 0.0 4.3 0.00 0.00 0.00 63 1014.6
20260905152025 92 0 0.0 2.6 0.00 0.00 0.00 67 1014.6
20260905151541 91 0 0.0 2.6 0.00 0.00 0.00 66 1014.7
20260905151021 91 0 0.0 2.6 0.00 0.00 0.00 65 1014.7
20260905150518 91 23 0.9 2.6 0.00 0.00 0.00 66 1014.7
20260905150041 90 0 0.0 2.6 0.00 0.00 0.00 67 1014.8
20260905145522 90 0 0.0 3.5 0.00 0.00 0.00 68 1014.8
20260905145020 90 0 0.0 3.5 0.00 0.00 0.00 67 1014.8
20260905144541 89 0 0.0 2.6 0.00 0.00 0.00 68 1014.9
20260905144019 89 33 0.0 1.7 0.00 0.00 0.00 70 1014.6
20260905143520 88 0 0.0 1.7 0.00 0.00 0.00 72 1014.7
20260905143041 88 27 0.0 1.7 0.00 0.00 0.00 71 1014.7
20260905142518 88 0 0.0 1.7 0.00 0.00 0.00 71 1014.8
20260905142021 88 0 0.0 1.7 0.00 0.00 0.00 73 1014.9
20260905141550 87 0 0.0 1.7 0.00 0.00 0.00 74 1014.8
20260905141022 87 0 0.0 1.7 0.00 0.00 0.00 74 1014.8
20260905140520 87 0 0.0 1.7 0.00 0.00 0.00 73 1014.7
20260905140041 87 0 0.0 0.9 0.00 0.00 0.00 73 1014.7
20260905135520 86 0 0.0 0.9 0.00 0.00 0.00 74 1014.7
20260905135020 85 0 0.0 0.9 0.00 0.00 0.00 75 1014.8
20260905134537 84 0 0.0 0.9 0.00 0.00 0.00 75 1014.7
20260905134020 83 0 0.0 0.9 0.00 0.00 0.00 75 1014.7
20260905133520 83 39 0.0 0.0 0.00 0.00 0.00 74 1014.9
20260905133035 83 0 0.0 0.0 0.00 0.00 0.00 73 1014.7
20260905132521 82 0 0.0 2.6 0.00 0.00 0.00 71 1014.8
20260905132021 82 0 0.0 2.6 0.00 0.00 0.00 68 1014.8
20260905131540 81 0 0.9 2.6 0.00 0.00 0.00 70 1014.8
20260905131021 81 39 0.0 2.6 0.00 0.00 0.00 62 1014.8
20260905130524 80 0 0.0 2.6 0.00 0.00 0.00 44 1014.7
20260905130045 79 0 0.0 1.7 0.00 0.00 0.00 30 1014.7
20260905125526 78 0 0.0 0.0 0.00 0.00 0.00 19 1014.7
20260905125021 77 0 0.0 0.0 0.00 0.00 0.00 11 1014.8
20260905124544 77 0 0.0 0.0 0.00 0.00 0.00 5 1014.8
20260905124025 76 0 0.0 0.0 0.00 0.00 0.00 4 1014.8
20260905123520 76 0 0.0 0.0 0.00 0.00 0.00 5 1014.9
20260905123041 76 0 0.0 0.0 0.00 0.00 0.00 5 1014.8
20260905122527 76 0 0.0 0.0 0.00 0.00 0.00 6 1014.7
20260905122025 75 0 0.0 0.0 0.00 0.00 0.00 6 1014.8
20260905121539 75 0 0.0 0.0 0.00 0.00 0.00 8 1014.6
20260905121023 75 0 0.0 0.0 0.00 0.00 0.00 9 1014.6
20260905120523 75 0 0.0 0.0 0.00 0.00 0.00 9 1014.6
20260905120042 75 0 0.0 0.0 0.00 0.00 0.00 9 1014.6
20260905115521 75 0 0.0 0.0 0.00 0.00 0.00 10 1014.5
20260905115018 75 0 0.0 0.0 0.00 0.00 0.00 9 1014.6
20260905114549 75 0 0.0 0.0 0.00 0.00 0.00 10 1014.4
20260905114022 75 0 0.0 0.0 0.00 0.00 0.00 12 1014.3
20260905113521 75 0 0.0 0.0 0.00 0.00 0.00 13 1014.4
20260905113041 75 0 0.0 0.0 0.00 0.00 0.00 15 1014.2
20260905112524 75 0 0.0 0.0 0.00 0.00 0.00 14 1014.3
20260905112023 75 0 0.0 0.0 0.00 0.00 0.00 16 1014.3
20260905111544 75 0 0.0 0.0 0.00 0.00 0.00 18 1014.3
20260905111023 75 0 0.0 0.0 0.00 0.00 0.00 16 1014.2
20260905110521 75 0 0.0 0.0 0.00 0.00 0.00 14 1014.3
20260905110041 75 0 0.0 0.0 0.00 0.00 0.00 15 1014.2
20260905105519 75 0 0.0 0.0 0.00 0.00 0.00 16 1014.2
20260905105019 75 0 0.0 0.0 0.00 0.00 0.00 19 1014.2
20260905104549 75 0 0.0 0.0 0.00 0.00 0.00 21 1014.1
20260905104017 76 0 0.0 0.0 0.00 0.00 0.00 23 1014.2
20260905103520 76 0 0.0 0.0 0.00 0.00 0.00 22 1014.2
20260905103043 76 0 0.0 0.0 0.00 0.00 0.00 22 1014.1
20260905102520 76 0 0.0 0.0 0.00 0.00 0.00 25 1014.2
20260905102023 76 0 0.0 0.0 0.00 0.00 0.00 26 1014.2
20260905101545 76 0 0.0 0.0 0.00 0.00 0.00 22 1014.1
20260905101022 76 0 0.0 0.0 0.00 0.00 0.00 22 1014.1
20260905100521 76 0 0.0 0.0 0.00 0.00 0.00 23 1014.3
20260905100041 76 0 0.0 0.0 0.00 0.00 0.00 25 1014.2
20260905095520 76 0 0.0 0.0 0.00 0.00 0.00 28 1014.2
20260905095024 76 0 0.0 0.0 0.00 0.00 0.00 28 1014.2
20260905094543 76 0 0.0 0.0 0.00 0.00 0.00 30 1014.3
20260905094019 76 0 0.0 0.0 0.00 0.00 0.00 30 1014.3
20260905093517 76 0 0.0 0.0 0.00 0.00 0.00 30 1014.3
20260905093041 77 0 0.0 0.0 0.00 0.00 0.00 29 1014.2
20260905092519 77 0 0.0 0.0 0.00 0.00 0.00 31 1014.3
20260905092018 77 0 0.0 0.0 0.00 0.00 0.00 35 1014.2
20260905091538 77 0 0.0 0.0 0.00 0.00 0.00 36 1014.2
20260905091020 77 0 0.0 0.0 0.00 0.00 0.00 36 1014.1
20260905090518 77 0 0.0 0.0 0.00 0.00 0.00 35 1014.0
20260905085521 77 0 0.0 0.0 0.00 0.00 0.00 40 1014.0
20260905085018 77 0 0.0 0.0 0.00 0.00 0.00 41 1014.0
20260905084542 77 0 0.0 0.0 0.00 0.00 0.00 42 1014.1
20260905084025 77 0 0.0 0.0 0.00 0.00 0.00 40 1014.1
20260905083517 77 0 0.0 0.0 0.00 0.00 0.00 42 1014.1
20260905083046 77 0 0.0 0.0 0.00 0.00 0.00 44 1014.0
20260905082521 77 0 0.0 0.0 0.00 0.00 0.00 45 1014.0
20260905082023 77 0 0.0 0.0 0.00 0.00 0.00 47 1013.9
20260905081547 78 0 0.0 0.0 0.00 0.00 0.00 46 1013.9
20260905081023 78 0 0.0 0.0 0.00 0.00 0.00 50 1013.7
20260905080522 78 0 0.0 0.0 0.00 0.00 0.00 53 1013.7
20260905080046 78 0 0.0 0.0 0.00 0.00 0.00 51 1013.8
20260905075519 78 0 0.0 0.0 0.00 0.00 0.00 54 1013.7
20260905075023 78 0 0.0 0.0 0.00 0.00 0.00 58 1013.7
20260905074540 78 0 0.0 0.0 0.00 0.00 0.00 58 1013.8
20260905074021 78 0 0.0 0.0 0.00 0.00 0.00 58 1013.8
20260905073516 78 0 0.0 0.0 0.00 0.00 0.00 59 1013.8
20260905073039 78 0 0.0 0.0 0.00 0.00 0.00 61 1013.8
20260905072519 78 0 0.0 0.0 0.00 0.00 0.00 62 1013.9
20260905072020 78 0 0.0 0.0 0.00 0.00 0.00 62 1013.8
20260905071541 79 0 0.0 0.0 0.00 0.00 0.00 61 1013.7
20260905071018 79 0 0.0 0.0 0.00 0.00 0.00 63 1013.6
20260905070517 79 0 0.0 0.0 0.00 0.00 0.00 64 1013.8
20260905070041 79 0 0.0 0.0 0.00 0.00 0.00 66 1013.7
20260905065520 79 0 0.0 0.0 0.00 0.00 0.00 66 1013.7
20260905065024 79 0 0.0 0.0 0.00 0.00 0.00 69 1013.7
20260905064540 79 0 0.0 0.0 0.00 0.00 0.00 68 1013.8
20260905064019 79 0 0.0 0.0 0.00 0.00 0.00 70 1013.8
20260905063522 79 0 0.0 0.0 0.00 0.00 0.00 70 1013.7
20260905063039 79 0 0.0 0.0 0.00 0.00 0.00 70 1013.8
20260905062520 79 0 0.0 0.0 0.00 0.00 0.00 70 1013.8
20260905062018 79 0 0.0 0.0 0.00 0.00 0.00 72 1013.8
20260905061540 80 0 0.0 0.0 0.00 0.00 0.00 71 1013.9
20260905061020 80 0 0.0 0.0 0.00 0.00 0.00 72 1013.8
20260905060520 80 0 0.0 0.9 0.00 0.00 0.00 72 1013.9
20260905060048 80 0 0.0 0.9 0.00 0.00 0.00 73 1013.8
20260905055519 80 0 0.0 0.0 0.00 0.00 0.00 74 1013.9
20260905055018 80 0 0.0 0.0 0.00 0.00 0.00 73 1014.0
20260905054542 80 0 0.0 0.0 0.00 0.00 0.00 74 1014.0
20260905054016 80 0 0.0 2.6 0.00 0.00 0.00 74 1014.1
20260905053516 80 0 0.0 2.6 0.00 0.00 0.00 74 1014.2
20260905053038 80 0 0.0 0.9 0.00 0.00 0.00 74 1014.1
20260905052523 80 0 0.0 0.9 0.00 0.00 0.00 74 1014.3
20260905052019 81 0 0.0 0.9 0.00 0.00 0.00 74 1014.4
20260905051541 81 0 0.0 0.9 0.00 0.00 0.00 75 1014.3
20260905051018 81 0 0.0 0.0 0.00 0.00 0.00 75 1014.4
20260905050520 81 0 0.0 0.9 0.00 0.00 0.00 75 1014.3
20260905050040 81 0 0.0 0.9 0.00 0.00 0.00 75 1014.3
20260905045522 81 0 0.0 0.9 0.00 0.00 0.00 75 1014.2
20260905045020 81 0 0.0 0.9 0.00 0.00 0.00 75 1014.2
20260905044541 81 0 0.0 0.9 0.00 0.00 0.00 75 1014.2
20260905044018 81 0 0.0 0.9 0.00 0.00 0.00 75 1014.0
20260905043516 82 0 0.0 0.0 0.00 0.00 0.00 75 1014.1
20260905043039 82 0 0.0 0.0 0.00 0.00 0.00 75 1014.2
20260905042517 82 0 0.0 0.0 0.00 0.00 0.00 75 1014.1
20260905042018 82 0 0.0 0.0 0.00 0.00 0.00 75 1014.2
20260905041540 82 0 0.0 0.0 0.00 0.00 0.00 75 1014.4
20260905041020 82 0 0.0 0.0 0.00 0.00 0.00 74 1014.3
20260905040518 83 0 0.0 0.0 0.00 0.00 0.00 74 1014.2
20260905040042 83 0 0.0 0.0 0.00 0.00 0.00 74 1014.4
20260905035519 83 0 0.0 0.0 0.00 0.00 0.00 74 1014.4
20260905035024 83 0 0.0 0.0 0.00 0.00 0.00 73 1014.5
20260905034543 83 0 0.0 0.0 0.00 0.00 0.00 73 1014.3
20260905034022 83 0 0.0 0.0 0.00 0.00 0.00 73 1014.4
20260905033521 84 0 0.0 1.7 0.00 0.00 0.00 73 1014.7
20260905033044 84 0 0.0 1.7 0.00 0.00 0.00 73 1014.6
20260905032518 84 0 0.0 1.7 0.00 0.00 0.00 73 1014.6
20260905032018 84 0 0.0 2.6 0.00 0.00 0.00 73 1014.6
20260905031548 84 0 0.0 2.6 0.00 0.00 0.00 72 1014.7
20260905031020 84 250 0.0 0.9 0.00 0.00 0.00 72 1014.7
20260905030518 85 0 0.0 3.5 0.00 0.00 0.00 72 1014.7
20260905030046 85 0 0.0 3.5 0.00 0.00 0.00 71 1014.8
20260905025523 85 0 0.0 3.5 0.00 0.00 0.00 71 1014.8
20260905025023 85 0 0.0 2.6 0.00 0.00 0.00 71 1014.6
20260905024541 85 0 0.0 2.6 0.00 0.00 0.00 71 1014.8
20260905024023 85 0 0.0 3.5 0.00 0.00 0.00 70 1014.7
20260905023519 85 0 0.0 4.3 0.00 0.00 0.00 70 1014.8
20260905023039 85 198 0.9 4.3 0.00 0.00 0.00 70 1014.5
20260905022522 86 82 0.0 1.7 0.00 0.00 0.00 68 1014.3
20260905022020 86 0 0.0 0.9 0.00 0.00 0.00 66 1014.3
20260905021540 86 62 0.0 0.9 0.00 0.00 0.00 66 1014.2
20260905021018 86 0 0.0 0.0 0.00 0.00 0.00 65 1014.0
20260905020520 86 0 0.0 0.0 0.00 0.00 0.00 65 1014.0
20260905020043 86 0 0.0 2.6 0.00 0.00 0.00 65 1013.9
20260905015523 86 0 0.0 2.6 0.00 0.00 0.00 65 1013.9
20260905015024 87 62 0.0 2.6 0.00 0.00 0.00 64 1013.8
20260905014543 87 0 0.0 0.0 0.00 0.00 0.00 64 1013.8
20260905014018 87 0 0.0 0.0 0.00 0.00 0.00 63 1013.7
20260905013518 87 0 0.0 0.0 0.00 0.00 0.00 63 1013.6
20260905013041 87 0 0.0 0.0 0.00 0.00 0.00 63 1013.6
20260905012518 88 0 0.0 0.0 0.00 0.00 0.00 63 1013.6
20260905012017 88 0 0.0 0.0 0.00 0.00 0.00 62 1013.7
20260905011549 88 0 0.0 0.0 0.00 0.00 0.00 62 1013.6
20260905011017 89 0 0.0 0.0 0.00 0.00 0.00 60 1013.6
20260905010520 89 0 0.0 0.0 0.00 0.00 0.00 59 1013.6
20260905010057 89 0 0.0 0.0 0.00 0.00 0.00 59 1013.5
20260905005521 90 0 0.0 0.0 0.00 0.00 0.00 58 1013.5
20260905005020 90 0 0.0 0.0 0.00 0.00 0.00 57 1013.6
20260905004544 91 0 0.0 0.0 0.00 0.00 0.00 57 1013.7
20260905004024 91 0 0.0 0.0 0.00 0.00 0.00 56 1013.6
20260905003521 91 0 0.0 0.0 0.00 0.00 0.00 55 1013.6
20260905003040 92 0 0.0 0.0 0.00 0.00 0.00 54 1013.5
20260905002524 92 0 0.0 0.0 0.00 0.00 0.00 54 1013.5
20260905002017 93 0 0.0 0.0 0.00 0.00 0.00 54 1013.5
20260905001552 93 0 0.0 0.0 0.00 0.00 0.00 52 1013.5
20260905001018 93 0 0.0 0.0 0.00 0.00 0.00 51 1013.5
20260905000520 94 0 0.0 0.0 0.00 0.00 0.00 50 1013.6
20260905000056 94 0 0.0 0.9 0.00 0.00 0.00 50 1013.6
20260904235521 94 0 0.0 0.9 0.00 0.00 0.00 50 1013.5
20260904235020 95 0 0.0 0.9 0.00 0.00 0.00 49 1013.5
20260904234541 95 0 0.0 0.9 0.00 0.00 0.00 48 1013.5
20260904234020 95 0 0.0 0.9 0.00 0.00 0.00 48 1013.5
20260904233517 96 0 0.0 0.0 0.00 0.00 0.00 47 1013.5
20260904233040 96 0 0.0 0.0 0.00 0.00 0.00 48 1013.4
20260904232520 96 0 0.0 2.6 0.00 0.00 0.00 46 1013.4
20260904232019 97 0 0.0 2.6 0.00 0.00 0.00 46 1013.3
20260904231548 97 0 0.0 2.6 0.00 0.00 0.00 46 1013.3
20260904231024 97 0 0.0 1.7 0.00 0.00 0.00 45 1013.3
20260904230522 97 0 0.0 1.7 0.00 0.00 0.00 45 1013.2
20260904230100 98 87 0.0 6.1 0.00 0.00 0.00 44 1013.0
20260904225520 98 168 0.9 6.1 0.00 0.00 0.00 44 1013.2
20260904225019 98 0 0.9 4.3 0.00 0.00 0.00 43 1013.1
20260904224541 98 0 0.0 7.8 0.00 0.00 0.00 42 1013.0
20260904224018 98 111 0.0 7.8 0.00 0.00 0.00 43 1013.1
20260904223518 98 0 0.9 7.8 0.00 0.00 0.00 43 1013.1
20260904223049 98 0 0.0 2.6 0.00 0.00 0.00 43 1013.0
20260904222521 98 113 0.9 2.6 0.00 0.00 0.00 42 1013.0
20260904222019 98 82 0.0 2.6 0.00 0.00 0.00 42 1013.0
20260904221546 98 0 0.0 7.8 0.00 0.00 0.00 42 1012.8
20260904221024 98 0 0.9 7.8 0.00 0.00 0.00 42 1012.8
20260904220522 98 0 0.9 5.2 0.00 0.00 0.00 42 1012.9
20260904220058 99 90 0.0 7.8 0.00 0.00 0.00 43 1012.7
20260904215517 99 142 2.6 7.8 0.00 0.00 0.00 43 1012.6
20260904215017 99 101 0.9 4.3 0.00 0.00 0.00 43 1012.5
20260904214541 99 175 0.0 4.3 0.00 0.00 0.00 43 1012.6
20260904214020 99 0 0.9 4.3 0.00 0.00 0.00 43 1012.4
20260904213519 99 107 0.9 4.3 0.00 0.00 0.00 42 1012.5
20260904213041 99 0 0.0 3.5 0.00 0.00 0.00 41 1012.7
20260904212518 99 0 0.0 6.1 0.00 0.00 0.00 43 1012.8
20260904212024 99 341 1.7 6.1 0.00 0.00 0.00 43 1012.8
20260904211543 99 0 0.9 4.3 0.00 0.00 0.00 43 1012.8
20260904211022 99 115 0.0 9.6 0.00 0.00 0.00 43 1012.7
20260904210520 99 84 0.9 9.6 0.00 0.00 0.00 43 1012.7
20260904210047 99 0 0.0 4.3 0.00 0.00 0.00 42 1012.8
20260904205519 99 0 0.0 7.8 0.00 0.03 0.00 42 1012.8
20260904205018 99 22 0.9 7.8 0.00 0.03 0.00 41 1012.9
20260904204540 99 48 0.9 7.8 0.00 0.03 0.00 43 1012.8
20260904204020 99 147 0.0 3.5 0.00 0.03 0.00 45 1012.9
20260904203520 99 136 0.0 7.8 0.00 0.03 0.00 43 1012.9
20260904203043 99 345 0.9 7.8 0.00 0.03 0.00 44 1013.1
20260904202521 99 5 1.7 5.2 0.00 0.03 0.00 43 1013.1
20260904202018 99 48 0.0 5.2 0.00 0.03 0.00 44 1013.3
20260904201550 99 53 0.0 4.3 0.00 0.03 0.00 43 1013.4
20260904201018 100 68 0.9 4.3 0.00 0.03 0.00 41 1013.4
20260904200518 100 84 0.9 3.5 0.00 0.03 0.00 43 1013.5
20260904200052 100 0 0.9 4.3 0.00 0.03 0.00 44 1013.5
20260904195525 100 38 0.9 4.3 0.00 0.03 0.00 43 1013.6
20260904195019 100 0 0.0 4.3 0.00 0.03 0.00 46 1013.6
20260904194548 100 61 1.7 4.3 0.00 0.03 0.00 43 1013.7
20260904194022 101 61 0.9 5.2 0.00 0.03 0.00 44 1013.8
20260904193522 101 0 0.9 5.2 0.00 0.03 0.00 44 1014.0
20260904193041 101 73 0.0 5.2 0.00 0.03 0.00 43 1014.1
20260904192524 100 188 0.9 5.2 0.00 0.03 0.00 44 1014.2
20260904192020 100 18 0.0 4.3 0.00 0.03 0.00 45 1014.3
20260904191538 99 77 0.0 4.3 0.00 0.03 0.00 53 1014.4
20260904191018 99 0 0.0 5.2 0.00 0.03 0.00 46 1014.5
20260904190518 99 38 0.9 5.2 0.00 0.03 0.00 44 1014.8
20260904190041 100 61 0.9 5.2 0.00 0.03 0.00 45 1014.7
20260904185517 99 0 0.0 2.6 0.00 0.03 0.00 47 1014.6
20260904185023 99 0 0.0 5.2 0.00 0.03 0.00 47 1014.8
20260904184604 99 0 0.9 7.0 0.00 0.03 0.00 47 1014.8
20260904184021 99 120 1.7 7.0 0.00 0.03 0.00 46 1014.9
20260904183519 99 82 1.7 6.1 0.00 0.03 0.00 46 1015.1
20260904183042 98 0 0.9 4.3 0.00 0.03 0.00 50 1015.1